Private Wetterstation Wechselburg
Wetterdaten: Donnerstag, 15.03.2018
Datum Zeit Temp. +2m Bodentemp. Temp.+5cm Temp. Wind Windchill X Diff Temp. Feuchte +2m Feuchte +5cm Luftdruck Regen Wind Richtung Richtung Sonnenschein Taupunkt Windchill Windben
15.03.2018 00:00 2,4 C 4,7 C 7,7 C 2,3 C 2,0 C 0,0 C 85 % 67 % 1012,5 hPa 0,0 l/m 0,0 km/h (0 Bft) O-NO 67 0 min 0,1 C 2,0 C 0,0 km/h (0 Bft)
15.03.2018 00:05 2,4 C 4,7 C 7,7 C 2,3 C 2,0 C 0,0 C 85 % 67 % 1012,5 hPa 0,0 l/m 0,0 km/h (0 Bft) O-NO 67 0 min 0,1 C 2,0 C 0,0 km/h (0 Bft)
15.03.2018 00:10 2,4 C 4,7 C 7,7 C 2,2 C 1,9 C 0,0 C 85 % 67 % 1012,5 hPa 0,0 l/m 0,0 km/h (0 Bft) N-NO 22 0 min 0,1 C 1,9 C 0,0 km/h (0 Bft)
15.03.2018 00:15 2,3 C 4,7 C 7,7 C 2,2 C 1,9 C 0,0 C 85 % 67 % 1012,4 hPa 0,0 l/m 0,0 km/h (0 Bft) O-NO 67 0 min 0,0 C 1,9 C 0,0 km/h (0 Bft)
15.03.2018 00:20 2,3 C 4,7 C 7,7 C 2,2 C 1,9 C 0,0 C 85 % 67 % 1012,4 hPa 0,0 l/m 0,0 km/h (0 Bft) O-NO 67 0 min 0,0 C 1,9 C 0,0 km/h (0 Bft)
15.03.2018 00:25 2,3 C 4,7 C 7,7 C 2,2 C 1,9 C 0,0 C 85 % 67 % 1012,4 hPa 0,0 l/m 0,0 km/h (0 Bft) NO 45 0 min 0,0 C 1,9 C 0,0 km/h (0 Bft)
15.03.2018 00:30 2,3 C 4,7 C 7,7 C 2,2 C 1,9 C 0,0 C 85 % 67 % 1012,4 hPa 0,0 l/m 0,0 km/h (0 Bft) O-NO 67 0 min 0,0 C 1,9 C 0,0 km/h (0 Bft)
15.03.2018 00:35 2,2 C 4,7 C 7,7 C 2,1 C 1,8 C 0,0 C 85 % 67 % 1012,6 hPa 0,0 l/m 0,0 km/h (0 Bft) NO 45 0 min -0,1 C 1,8 C 0,0 km/h (0 Bft)
15.03.2018 00:40 2,2 C 4,7 C 7,7 C 2,0 C 1,7 C 0,0 C 85 % 67 % 1012,6 hPa 0,0 l/m 0,0 km/h (0 Bft) NO 45 0 min -0,1 C 1,7 C 0,0 km/h (0 Bft)
15.03.2018 00:45 2,3 C 4,7 C 7,7 C 2,1 C 1,7 C 0,0 C 85 % 67 % 1012,6 hPa 0,0 l/m 0,0 km/h (0 Bft) NO 45 0 min 0,0 C 1,7 C 0,0 km/h (0 Bft)
15.03.2018 00:50 2,3 C 4,7 C 7,7 C 2,1 C 1,7 C 0,0 C 85 % 67 % 1012,6 hPa 0,0 l/m 0,0 km/h (0 Bft) O-NO 67 0 min 0,0 C 1,7 C 0,0 km/h (0 Bft)
15.03.2018 00:55 2,3 C 4,7 C 7,7 C 2,1 C 1,7 C 0,0 C 85 % 67 % 1012,1 hPa 0,0 l/m 0,0 km/h (0 Bft) N-NO 22 0 min 0,0 C 1,7 C 0,0 km/h (0 Bft)
15.03.2018 01:00 2,1 C 4,7 C 7,7 C 1,9 C 1,6 C 0,0 C 85 % 67 % 1012,1 hPa 0,0 l/m 0,0 km/h (0 Bft) N-NO 22 0 min -0,2 C 1,6 C 0,0 km/h (0 Bft)
15.03.2018 01:05 2,2 C 4,7 C 7,7 C 2,0 C 1,6 C 0,0 C 85 % 67 % 1012,1 hPa 0,0 l/m 0,0 km/h (0 Bft) N-NO 22 0 min -0,1 C 1,6 C 0,0 km/h (0 Bft)
15.03.2018 01:10 2,1 C 4,7 C 7,7 C 1,9 C 1,5 C 0,0 C 85 % 67 % 1012,1 hPa 0,0 l/m 0,0 km/h (0 Bft) N-NO 22 0 min -0,2 C 1,5 C 0,0 km/h (0 Bft)
15.03.2018 01:15 2,1 C 4,7 C 7,7 C 1,9 C 1,5 C 0,0 C 85 % 67 % 1012,1 hPa 0,0 l/m 0,0 km/h (0 Bft) N-NO 22 0 min -0,2 C 1,5 C 0,0 km/h (0 Bft)
15.03.2018 01:20 2,1 C 4,7 C 7,7 C 1,9 C 1,5 C 0,0 C 85 % 67 % 1012,1 hPa 0,0 l/m 0,0 km/h (0 Bft) N-NO 22 0 min -0,2 C 1,5 C 0,0 km/h (0 Bft)
15.03.2018 01:25 2,0 C 4,7 C 7,7 C 1,8 C 1,5 C 0,0 C 85 % 67 % 1012,1 hPa 0,0 l/m 0,0 km/h (0 Bft) O-NO 67 0 min -0,3 C 1,5 C 0,0 km/h (0 Bft)
15.03.2018 01:30 2,0 C 4,7 C 7,7 C 1,8 C 1,5 C 0,0 C 85 % 67 % 1012,1 hPa 0,0 l/m 0,2 km/h (0 Bft) NO 45 0 min -0,3 C 1,5 C 0,0 km/h (0 Bft)
15.03.2018 01:35 2,0 C 4,7 C 7,7 C 1,9 C 1,6 C 0,0 C 85 % 67 % 1011,9 hPa 0,0 l/m 0,3 km/h (0 Bft) NO 45 0 min -0,3 C 1,6 C 2,9 km/h (1 Bft)
15.03.2018 01:40 2,0 C 4,7 C 7,7 C 1,9 C 1,6 C 0,0 C 85 % 67 % 1011,9 hPa 0,0 l/m 0,5 km/h (0 Bft) NO 45 0 min -0,3 C 1,6 C 1,8 km/h (1 Bft)
15.03.2018 01:45 2,0 C 4,6 C 7,7 C 1,8 C 1,5 C 0,0 C 85 % 67 % 1011,9 hPa 0,0 l/m 0,5 km/h (0 Bft) O-NO 67 0 min -0,3 C 1,5 C 0,0 km/h (0 Bft)
15.03.2018 01:50 2,0 C 4,7 C 7,7 C 1,8 C 1,5 C 0,0 C 85 % 67 % 1011,9 hPa 0,0 l/m 0,0 km/h (0 Bft) NO 45 0 min -0,3 C 1,5 C 0,0 km/h (0 Bft)
15.03.2018 01:55 2,0 C 4,7 C 7,7 C 1,8 C 1,3 C 0,0 C 85 % 67 % 1011,4 hPa 0,0 l/m 0,5 km/h (0 Bft) O-NO 67 0 min -0,3 C 1,3 C 5,0 km/h (1 Bft)
15.03.2018 02:00 2,0 C 4,7 C 7,7 C 1,8 C 1,3 C 0,0 C 85 % 67 % 1011,4 hPa 0,0 l/m 1,6 km/h (1 Bft) NO 45 0 min -0,3 C 1,3 C 3,1 km/h (1 Bft)
15.03.2018 02:05 2,0 C 4,6 C 7,7 C 1,4 C 0,2 C 0,0 C 86 % 67 % 1011,4 hPa 0,0 l/m 4,5 km/h (1 Bft) O-NO 67 0 min -0,1 C 0,2 C 7,4 km/h (2 Bft)
15.03.2018 02:10 2,0 C 4,6 C 7,7 C 1,4 C 0,1 C 0,0 C 85 % 67 % 1011,4 hPa 0,0 l/m 4,7 km/h (1 Bft) O-NO 67 0 min -0,3 C -1,3 C 5,6 km/h (1 Bft)
15.03.2018 02:15 2,0 C 4,6 C 7,7 C 1,5 C 0,4 C 0,0 C 85 % 67 % 1011,1 hPa 0,0 l/m 3,7 km/h (1 Bft) NO 45 0 min -0,3 C 0,4 C 4,3 km/h (1 Bft)
15.03.2018 02:20 1,9 C 4,6 C 7,7 C 1,4 C 0,4 C 0,0 C 85 % 67 % 1011,1 hPa 0,0 l/m 3,4 km/h (1 Bft) NO 45 0 min -0,3 C 0,4 C 3,7 km/h (1 Bft)
15.03.2018 02:25 1,9 C 4,6 C 7,7 C 1,4 C 0,3 C 0,0 C 85 % 67 % 1011,1 hPa 0,0 l/m 3,1 km/h (1 Bft) NO 45 0 min -0,3 C 0,3 C 4,8 km/h (1 Bft)
15.03.2018 02:30 1,9 C 4,6 C 7,7 C 1,5 C 0,7 C 0,0 C 85 % 67 % 1011,1 hPa 0,0 l/m 2,3 km/h (1 Bft) O-NO 67 0 min -0,3 C 0,7 C 0,0 km/h (0 Bft)
15.03.2018 02:35 1,7 C 4,6 C 7,7 C 1,3 C 0,4 C 0,0 C 85 % 67 % 1010,8 hPa 0,0 l/m 1,1 km/h (1 Bft) NO 45 0 min -0,5 C 0,4 C 0,0 km/h (0 Bft)
15.03.2018 02:40 1,6 C 4,6 C 7,7 C 1,1 C 0,2 C 0,0 C 85 % 67 % 1010,8 hPa 0,0 l/m 0,3 km/h (0 Bft) N-NO 22 0 min -0,6 C 0,2 C 0,0 km/h (0 Bft)
15.03.2018 02:45 1,5 C 4,6 C 7,7 C 1,0 C -0,1 C 0,0 C 85 % 67 % 1010,8 hPa 0,0 l/m 0,0 km/h (0 Bft) N-NO 22 0 min -0,7 C -0,1 C 0,0 km/h (0 Bft)
15.03.2018 02:50 1,4 C 4,6 C 7,7 C 0,8 C -0,3 C 0,0 C 85 % 67 % 1010,8 hPa 0,0 l/m 0,3 km/h (0 Bft) NO 45 0 min -0,8 C -0,3 C 2,1 km/h (1 Bft)
15.03.2018 02:55 1,2 C 4,6 C 7,7 C 0,7 C -0,4 C 0,0 C 85 % 67 % 1010,2 hPa 0,0 l/m 0,8 km/h (0 Bft) NO 45 0 min -1,0 C -0,4 C 2,7 km/h (1 Bft)
15.03.2018 03:00 1,2 C 4,6 C 7,7 C 0,7 C -0,4 C 0,0 C 85 % 67 % 1010,2 hPa 0,0 l/m 1,0 km/h (0 Bft) N-NO 22 0 min -1,0 C -0,4 C 1,6 km/h (1 Bft)
15.03.2018 03:05 1,1 C 4,6 C 7,7 C 0,5 C -0,6 C 0,0 C 85 % 67 % 1010,2 hPa 0,0 l/m 0,6 km/h (0 Bft) N-NO 22 0 min -1,1 C -0,6 C 0,0 km/h (0 Bft)
15.03.2018 03:10 1,1 C 4,6 C 7,7 C 0,4 C -0,9 C 0,0 C 85 % 67 % 1010,2 hPa 0,0 l/m 0,0 km/h (0 Bft) NO 45 0 min -1,1 C -0,9 C 0,0 km/h (0 Bft)
15.03.2018 03:15 0,8 C 4,6 C 7,7 C 0,2 C -1,0 C 0,0 C 85 % 67 % 1009,8 hPa 0,0 l/m 0,5 km/h (0 Bft) N-NO 22 0 min -1,4 C -1,0 C 3,1 km/h (1 Bft)
15.03.2018 03:20 0,8 C 4,6 C 7,7 C 0,2 C -0,9 C 0,0 C 85 % 67 % 1009,8 hPa 0,0 l/m 1,1 km/h (1 Bft) NO 45 0 min -1,4 C -0,9 C 2,3 km/h (1 Bft)
15.03.2018 03:25 0,8 C 4,6 C 7,7 C 0,3 C -0,8 C 0,0 C 86 % 67 % 1009,8 hPa 0,0 l/m 2,4 km/h (1 Bft) NO 45 0 min -1,3 C -0,8 C 2,7 km/h (1 Bft)
15.03.2018 03:30 0,8 C 4,6 C 7,7 C 0,3 C -0,7 C 0,0 C 86 % 67 % 1009,8 hPa 0,0 l/m 2,6 km/h (1 Bft) NO 45 0 min -1,3 C -0,7 C 3,4 km/h (1 Bft)
15.03.2018 03:35 0,8 C 4,6 C 7,7 C 0,2 C -1,1 C 0,0 C 86 % 67 % 1009,9 hPa 0,0 l/m 3,4 km/h (1 Bft) NO 45 0 min -1,3 C -1,1 C 7,6 km/h (2 Bft)
15.03.2018 03:40 0,8 C 4,6 C 7,7 C 0,1 C -1,2 C 0,0 C 86 % 67 % 1009,9 hPa 0,0 l/m 3,5 km/h (1 Bft) N-NO 22 0 min -1,3 C -1,2 C 2,3 km/h (1 Bft)
15.03.2018 03:45 0,8 C 4,6 C 7,7 C 0,3 C -0,6 C 0,0 C 86 % 67 % 1009,9 hPa 0,0 l/m 1,8 km/h (1 Bft) O 90 0 min -1,3 C -0,6 C 7,7 km/h (2 Bft)
15.03.2018 03:50 0,7 C 4,6 C 7,7 C 0,1 C -1,0 C 0,0 C 86 % 67 % 1009,9 hPa 0,0 l/m 0,2 km/h (0 Bft) O 90 0 min -1,4 C -1,0 C 0,0 km/h (0 Bft)
15.03.2018 03:55 0,5 C 4,6 C 7,7 C -0,2 C -1,5 C 0,0 C 86 % 67 % 1009,6 hPa 0,0 l/m 0,0 km/h (0 Bft) O 90 0 min -1,6 C -1,5 C 0,0 km/h (0 Bft)
15.03.2018 04:00 0,4 C 4,6 C 7,7 C -0,3 C -1,6 C 0,0 C 86 % 67 % 1009,6 hPa 0,0 l/m 0,2 km/h (0 Bft) N-NO 22 0 min -1,7 C -1,6 C 2,1 km/h (1 Bft)
15.03.2018 04:05 0,2 C 4,6 C 7,7 C -0,4 C -1,6 C 0,0 C 86 % 67 % 1009,6 hPa 0,0 l/m 0,2 km/h (0 Bft) NO 45 0 min -1,9 C -1,6 C 0,0 km/h (0 Bft)
15.03.2018 04:10 0,3 C 4,6 C 7,7 C -0,3 C -1,4 C 0,0 C 86 % 67 % 1009,6 hPa 0,0 l/m 1,0 km/h (0 Bft) NO 45 0 min -1,8 C -1,4 C 2,4 km/h (1 Bft)
15.03.2018 04:15 0,3 C 4,6 C 7,7 C -0,2 C -1,1 C 0,0 C 86 % 67 % 1009,8 hPa 0,0 l/m 1,6 km/h (1 Bft) O-NO 67 0 min -1,8 C -1,1 C 0,0 km/h (0 Bft)
15.03.2018 04:20 0,3 C 4,6 C 7,7 C -0,2 C -1,1 C 0,0 C 86 % 67 % 1009,8 hPa 0,0 l/m 1,3 km/h (1 Bft) N-NO 22 0 min -1,8 C -1,1 C 2,1 km/h (1 Bft)
15.03.2018 04:25 0,2 C 4,6 C 7,7 C -0,2 C -1,1 C 0,0 C 86 % 67 % 1009,8 hPa 0,0 l/m 0,8 km/h (0 Bft) NO 45 0 min -1,9 C -1,1 C 0,0 km/h (0 Bft)
15.03.2018 04:30 0,1 C 4,6 C 7,7 C -0,3 C -1,2 C 0,0 C 86 % 67 % 1009,8 hPa 0,0 l/m 0,5 km/h (0 Bft) N-NO 22 0 min -2,0 C -1,2 C 0,0 km/h (0 Bft)
15.03.2018 04:35 0,1 C 4,6 C 7,7 C -0,5 C -1,6 C 0,0 C 86 % 67 % 1009,8 hPa 0,0 l/m 0,0 km/h (0 Bft) N-NO 22 0 min -2,0 C -1,6 C 0,0 km/h (0 Bft)
15.03.2018 04:40 -0,1 C 4,6 C 7,7 C -0,6 C -1,7 C 0,0 C 86 % 67 % 1009,8 hPa 0,0 l/m 0,0 km/h (0 Bft) O-NO 67 0 min -2,2 C -1,7 C 0,0 km/h (0 Bft)
15.03.2018 04:45 -0,2 C 4,6 C 7,7 C -0,7 C -1,7 C 0,0 C 86 % 67 % 1009,8 hPa 0,0 l/m 0,3 km/h (0 Bft) N-NO 22 0 min -2,3 C -1,7 C 0,0 km/h (0 Bft)
15.03.2018 04:50 -0,1 C 4,6 C 7,7 C -0,6 C -1,7 C 0,0 C 86 % 67 % 1009,8 hPa 0,0 l/m 0,3 km/h (0 Bft) NO 45 0 min -2,2 C -1,7 C 0,0 km/h (0 Bft)
15.03.2018 04:55 -0,3 C 4,6 C 7,7 C -0,8 C -1,7 C 0,0 C 86 % 67 % 1009,6 hPa 0,0 l/m 0,2 km/h (0 Bft) N-NO 22 0 min -2,3 C -1,7 C 0,0 km/h (0 Bft)
15.03.2018 05:00 -0,3 C 4,6 C 7,7 C -0,8 C -1,7 C 0,0 C 86 % 67 % 1009,6 hPa 0,0 l/m 0,2 km/h (0 Bft) O-NO 67 0 min -2,3 C -1,7 C 0,0 km/h (0 Bft)
15.03.2018 05:05 -0,3 C 4,6 C 7,7 C -0,8 C -1,8 C 0,0 C 86 % 67 % 1009,6 hPa 0,0 l/m 0,0 km/h (0 Bft) N-NO 22 0 min -2,3 C -1,8 C 0,0 km/h (0 Bft)
15.03.2018 05:10 -0,5 C 4,6 C 7,7 C -1,0 C -1,9 C 0,0 C 86 % 67 % 1009,6 hPa 0,0 l/m 0,0 km/h (0 Bft) NO 45 0 min -2,5 C -1,9 C 0,0 km/h (0 Bft)
15.03.2018 05:15 -0,5 C 4,6 C 7,7 C -1,0 C -1,9 C 0,0 C 86 % 67 % 1009,5 hPa 0,0 l/m 0,0 km/h (0 Bft) NO 45 0 min -2,5 C -1,9 C 0,0 km/h (0 Bft)
15.03.2018 05:20 -0,7 C 4,6 C 7,7 C -1,1 C -2,0 C 0,0 C 86 % 67 % 1009,5 hPa 0,0 l/m 0,0 km/h (0 Bft) N-NO 22 0 min -2,7 C -2,0 C 0,0 km/h (0 Bft)
15.03.2018 05:25 -0,8 C 4,6 C 7,7 C -1,2 C -1,9 C 0,0 C 86 % 67 % 1009,5 hPa 0,0 l/m 0,0 km/h (0 Bft) N-NO 22 0 min -2,8 C -1,9 C 0,0 km/h (0 Bft)
15.03.2018 05:30 -0,8 C 4,6 C 7,7 C -1,1 C -1,8 C 0,0 C 86 % 67 % 1009,5 hPa 0,0 l/m 0,0 km/h (0 Bft) N-NO 22 0 min -2,8 C -1,8 C 0,0 km/h (0 Bft)
15.03.2018 05:35 -0,8 C 4,6 C 7,7 C -1,1 C -1,7 C 0,0 C 86 % 67 % 1009,7 hPa 0,0 l/m 0,0 km/h (0 Bft) NO 45 0 min -2,8 C -1,7 C 0,0 km/h (0 Bft)
15.03.2018 05:40 -0,7 C 4,5 C 7,7 C -1,0 C -1,7 C 0,0 C 86 % 67 % 1009,7 hPa 0,0 l/m 0,0 km/h (0 Bft) N-NO 22 0 min -2,7 C -1,7 C 0,0 km/h (0 Bft)
15.03.2018 05:45 -0,7 C 4,5 C 7,7 C -1,0 C -1,5 C 0,0 C 87 % 67 % 1009,7 hPa 0,0 l/m 0,0 km/h (0 Bft) NO 45 0 min -2,6 C -1,5 C 0,0 km/h (0 Bft)
15.03.2018 05:50 -0,7 C 4,5 C 7,7 C -1,0 C -1,5 C 0,0 C 87 % 67 % 1009,7 hPa 0,0 l/m 0,0 km/h (0 Bft) N-NO 22 0 min -2,6 C -1,5 C 0,0 km/h (0 Bft)
15.03.2018 05:55 -0,7 C 4,5 C 7,7 C -0,9 C -1,3 C 0,0 C 87 % 67 % 1010,0 hPa 0,0 l/m 0,0 km/h (0 Bft) NO 45 0 min -2,6 C -1,3 C 0,0 km/h (0 Bft)
15.03.2018 06:00 -0,7 C 4,5 C 7,7 C -0,9 C -1,2 C 0,0 C 87 % 67 % 1010,0 hPa 0,0 l/m 0,0 km/h (0 Bft) N-NO 22 0 min -2,6 C -1,2 C 0,0 km/h (0 Bft)
15.03.2018 06:05 -0,7 C 4,5 C 7,7 C -0,9 C -1,2 C 0,0 C 87 % 67 % 1010,0 hPa 0,0 l/m 0,0 km/h (0 Bft) N-NO 22 0 min -2,6 C -1,2 C 0,0 km/h (0 Bft)
15.03.2018 06:10 -0,8 C 4,5 C 7,7 C -0,9 C -1,2 C 0,0 C 87 % 67 % 1010,0 hPa 0,0 l/m 0,0 km/h (0 Bft) NO 45 0 min -2,7 C -1,2 C 0,0 km/h (0 Bft)
15.03.2018 06:15 -0,7 C 4,5 C 7,7 C -0,9 C -1,2 C 0,0 C 87 % 67 % 1009,4 hPa 0,0 l/m 0,0 km/h (0 Bft) NO 45 0 min -2,6 C -1,2 C 0,0 km/h (0 Bft)
15.03.2018 06:20 -0,9 C 4,5 C 7,7 C -1,0 C -1,2 C 0,0 C 87 % 67 % 1009,4 hPa 0,0 l/m 0,0 km/h (0 Bft) NO 45 0 min -2,8 C -1,2 C 0,0 km/h (0 Bft)
15.03.2018 06:25 -0,9 C 4,5 C 7,7 C -1,0 C -1,3 C 0,0 C 87 % 67 % 1009,4 hPa 0,0 l/m 0,0 km/h (0 Bft) NO 45 0 min -2,8 C -1,3 C 0,0 km/h (0 Bft)
15.03.2018 06:30 -0,9 C 4,6 C 7,7 C -1,1 C -1,4 C 0,0 C 87 % 67 % 1009,4 hPa 0,0 l/m 0,0 km/h (0 Bft) NO 45 0 min -2,8 C -1,4 C 0,0 km/h (0 Bft)
15.03.2018 06:35 -0,9 C 4,5 C 7,7 C -1,1 C -1,6 C 0,0 C 87 % 67 % 1009,4 hPa 0,0 l/m 0,0 km/h (0 Bft) N-NO 22 0 min -2,8 C -1,6 C 0,0 km/h (0 Bft)
15.03.2018 06:40 -0,9 C 4,6 C 7,7 C -1,1 C -1,6 C 0,0 C 87 % 67 % 1009,4 hPa 0,0 l/m 0,0 km/h (0 Bft) N-NO 22 0 min -2,8 C -1,6 C 0,0 km/h (0 Bft)
15.03.2018 06:45 -1,0 C 4,5 C 7,7 C -1,2 C -1,6 C 0,0 C 87 % 67 % 1009,4 hPa 0,0 l/m 0,0 km/h (0 Bft) NO 45 0 min -2,9 C -1,6 C 0,0 km/h (0 Bft)
15.03.2018 06:50 -0,9 C 4,5 C 7,7 C -1,0 C -1,2 C 0,0 C 87 % 67 % 1009,4 hPa 0,0 l/m 0,0 km/h (0 Bft) N-NO 22 0 min -2,8 C -1,2 C 0,0 km/h (0 Bft)
15.03.2018 06:55 -1,1 C 4,5 C 7,7 C 0,0 C 0,0 C 1,1 C 87 % 67 % 1009,6 hPa 0,0 l/m 0,0 km/h (0 Bft) N-NO 22 5 min -3,0 C 0,0 C 0,0 km/h (0 Bft)
15.03.2018 07:00 -1,1 C 4,5 C 7,7 C 0,8 C 0,8 C 1,9 C 87 % 67 % 1009,6 hPa 0,0 l/m 0,0 km/h (0 Bft) N-NO 22 5 min -3,0 C 0,8 C 0,0 km/h (0 Bft)
15.03.2018 07:05 -1,1 C 4,5 C 7,7 C 2,2 C 2,2 C 3,3 C 87 % 67 % 1009,6 hPa 0,0 l/m 0,0 km/h (0 Bft) N-NO 22 5 min -3,0 C 2,2 C 0,0 km/h (0 Bft)
15.03.2018 07:10 -0,9 C 4,5 C 7,7 C 3,0 C 3,0 C 3,9 C 87 % 67 % 1009,6 hPa 0,0 l/m 0,0 km/h (0 Bft) N-NO 22 5 min -2,8 C 3,0 C 0,0 km/h (0 Bft)
15.03.2018 07:15 -0,8 C 4,5 C 7,7 C 4,1 C 4,1 C 4,9 C 87 % 67 % 1009,6 hPa 0,0 l/m 0,0 km/h (0 Bft) N-NO 22 5 min -2,7 C 4,1 C 0,0 km/h (0 Bft)
15.03.2018 07:20 -0,6 C 4,4 C 7,7 C 4,5 C 4,5 C 5,1 C 87 % 67 % 1009,6 hPa 0,0 l/m 0,3 km/h (0 Bft) O-NO 67 5 min -2,5 C 4,5 C 2,7 km/h (1 Bft)
15.03.2018 07:25 -0,1 C 4,2 C 7,7 C 4,6 C 4,6 C 4,7 C 88 % 67 % 1009,6 hPa 0,0 l/m 1,9 km/h (1 Bft) O-NO 67 5 min -1,8 C 4,6 C 6,9 km/h (2 Bft)
15.03.2018 07:30 -0,1 C 4,2 C 7,7 C 3,8 C 3,8 C 3,9 C 87 % 67 % 1009,6 hPa 0,0 l/m 3,7 km/h (1 Bft) O-NO 67 5 min -2,0 C 3,8 C 4,2 km/h (1 Bft)
15.03.2018 07:35 0,4 C 4,1 C 7,7 C 2,8 C 2,8 C 2,4 C 87 % 67 % 1010,1 hPa 0,0 l/m 4,5 km/h (1 Bft) O-NO 67 5 min -1,5 C 2,8 C 4,5 km/h (1 Bft)
15.03.2018 07:40 0,5 C 4,1 C 7,7 C 2,7 C 2,7 C 2,2 C 87 % 67 % 1010,1 hPa 0,0 l/m 4,3 km/h (1 Bft) O-NO 67 5 min -1,4 C 2,7 C 5,1 km/h (1 Bft)
15.03.2018 07:45 0,8 C 4,1 C 7,7 C 2,5 C 2,5 C 1,7 C 87 % 67 % 1010,1 hPa 0,0 l/m 5,0 km/h (1 Bft) NO 45 0 min -1,1 C 1,2 C 8,2 km/h (2 Bft)
15.03.2018 07:50 0,9 C 4,1 C 7,7 C 2,1 C 2,1 C 1,2 C 87 % 67 % 1010,1 hPa 0,0 l/m 5,1 km/h (1 Bft) NO 45 0 min -1,0 C 0,7 C 6,0 km/h (2 Bft)
15.03.2018 07:55 1,2 C 4,1 C 7,7 C 2,6 C 2,6 C 1,4 C 87 % 67 % 1009,7 hPa 0,0 l/m 5,0 km/h (1 Bft) NO 45 0 min -0,7 C 1,4 C 4,5 km/h (1 Bft)
15.03.2018 08:00 1,3 C 4,1 C 7,7 C 2,6 C 2,6 C 1,3 C 87 % 67 % 1009,7 hPa 0,0 l/m 4,7 km/h (1 Bft) NO 45 0 min -0,6 C 1,5 C 5,8 km/h (2 Bft)
15.03.2018 08:05 1,6 C 4,1 C 7,7 C 2,6 C 2,6 C 1,0 C 86 % 67 % 1009,7 hPa 0,0 l/m 4,5 km/h (1 Bft) O-NO 67 0 min -0,5 C 2,6 C 4,8 km/h (1 Bft)
15.03.2018 08:10 1,6 C 4,1 C 7,7 C 2,4 C 2,4 C 0,8 C 86 % 67 % 1009,7 hPa 0,0 l/m 4,8 km/h (1 Bft) NO 45 0 min -0,5 C 1,2 C 5,5 km/h (1 Bft)
15.03.2018 08:15 1,9 C 4,1 C 7,7 C 2,4 C 2,4 C 0,5 C 86 % 67 % 1009,7 hPa 0,0 l/m 5,5 km/h (1 Bft) NO 45 0 min -0,2 C 0,9 C 9,0 km/h (2 Bft)
15.03.2018 08:20 2,0 C 4,1 C 7,7 C 2,1 C 2,1 C 0,1 C 86 % 67 % 1009,7 hPa 0,0 l/m 6,6 km/h (2 Bft) NO 45 0 min -0,1 C 0,2 C 9,5 km/h (2 Bft)
15.03.2018 08:25 2,1 C 4,0 C 7,7 C 2,4 C 2,4 C 0,3 C 86 % 67 % 1009,7 hPa 0,0 l/m 7,1 km/h (2 Bft) NO 45 0 min 0,0 C 0,4 C 10,9 km/h (2 Bft)
15.03.2018 08:30 2,3 C 4,0 C 7,7 C 3,2 C 3,2 C 0,9 C 85 % 67 % 1009,7 hPa 0,0 l/m 6,6 km/h (2 Bft) O 90 0 min 0,0 C 1,4 C 7,4 km/h (2 Bft)
15.03.2018 08:35 2,4 C 4,0 C 7,7 C 3,2 C 3,2 C 0,8 C 85 % 67 % 1009,7 hPa 0,0 l/m 6,4 km/h (2 Bft) N-NO 22 0 min 0,1 C 1,5 C 9,2 km/h (2 Bft)
15.03.2018 08:40 2,7 C 4,0 C 7,7 C 3,2 C 3,2 C 0,5 C 85 % 67 % 1009,7 hPa 0,0 l/m 6,3 km/h (2 Bft) O-NO 67 0 min 0,4 C 1,5 C 7,4 km/h (2 Bft)
15.03.2018 08:45 2,7 C 4,0 C 7,7 C 2,8 C 2,8 C 0,1 C 84 % 67 % 1009,7 hPa 0,0 l/m 6,8 km/h (2 Bft) O-NO 67 0 min 0,3 C 0,9 C 6,6 km/h (2 Bft)
15.03.2018 08:50 2,8 C 4,0 C 7,7 C 3,1 C 3,1 C 0,3 C 84 % 67 % 1009,7 hPa 0,0 l/m 6,8 km/h (2 Bft) O-NO 67 0 min 0,4 C 1,3 C 9,0 km/h (2 Bft)
15.03.2018 08:55 2,9 C 3,9 C 7,7 C 3,1 C 2,1 C 0,2 C 84 % 67 % 1009,9 hPa 0,0 l/m 7,7 km/h (2 Bft) O-NO 67 0 min 0,5 C -0,2 C 13,2 km/h (3 Bft)
15.03.2018 09:00 3,1 C 3,9 C 7,7 C 3,0 C 1,9 C 0,0 C 84 % 67 % 1009,9 hPa 0,0 l/m 9,0 km/h (2 Bft) O-NO 67 0 min 0,7 C -0,8 C 14,0 km/h (3 Bft)
15.03.2018 09:05 3,2 C 3,9 C 7,7 C 3,3 C 2,9 C 0,1 C 84 % 67 % 1009,9 hPa 0,0 l/m 9,5 km/h (2 Bft) O-NO 67 0 min 0,8 C 0,3 C 10,0 km/h (2 Bft)
15.03.2018 09:10 3,5 C 4,0 C 7,7 C 4,0 C 3,5 C 0,5 C 84 % 67 % 1009,9 hPa 0,0 l/m 8,9 km/h (2 Bft) O-NO 67 0 min 1,1 C 1,1 C 10,6 km/h (2 Bft)
15.03.2018 09:15 3,6 C 3,9 C 7,7 C 4,5 C 4,1 C 0,9 C 84 % 67 % 1009,2 hPa 0,0 l/m 8,5 km/h (2 Bft) O-NO 67 0 min 1,2 C 1,9 C 14,5 km/h (3 Bft)
15.03.2018 09:20 3,9 C 3,9 C 7,7 C 5,1 C 4,8 C 1,2 C 83 % 67 % 1009,2 hPa 0,0 l/m 8,2 km/h (2 Bft) O-NO 67 0 min 1,3 C 2,8 C 6,4 km/h (2 Bft)
15.03.2018 09:25 3,9 C 3,9 C 7,7 C 5,7 C 5,3 C 1,8 C 83 % 67 % 1009,2 hPa 0,0 l/m 9,0 km/h (2 Bft) O-NO 67 0 min 1,3 C 3,2 C 15,4 km/h (3 Bft)
15.03.2018 09:30 4,0 C 3,9 C 7,7 C 5,8 C 5,1 C 1,8 C 82 % 67 % 1009,2 hPa 0,0 l/m 9,7 km/h (2 Bft) O-NO 67 0 min 1,2 C 2,8 C 10,0 km/h (2 Bft)
15.03.2018 09:35 4,3 C 4,0 C 7,7 C 5,4 C 4,6 C 1,1 C 82 % 67 % 1008,7 hPa 0,0 l/m 9,5 km/h (2 Bft) O-NO 67 0 min 1,5 C 2,3 C 15,6 km/h (3 Bft)
15.03.2018 09:40 4,4 C 4,0 C 7,7 C 5,3 C 4,7 C 0,9 C 82 % 67 % 1008,7 hPa 0,0 l/m 8,9 km/h (2 Bft) NO 45 0 min 1,6 C 2,6 C 9,2 km/h (2 Bft)
15.03.2018 09:45 4,7 C 4,0 C 7,7 C 5,7 C 5,3 C 1,0 C 80 % 67 % 1008,7 hPa 0,0 l/m 9,5 km/h (2 Bft) NO 45 0 min 1,6 C 3,1 C 11,1 km/h (2 Bft)
15.03.2018 09:50 4,8 C 4,0 C 7,7 C 6,2 C 5,8 C 1,4 C 80 % 67 % 1008,7 hPa 0,0 l/m 9,2 km/h (2 Bft) O-NO 67 0 min 1,6 C 3,8 C 9,5 km/h (2 Bft)
15.03.2018 09:55 5,0 C 4,0 C 7,7 C 6,1 C 5,4 C 1,1 C 81 % 67 % 1008,6 hPa 0,0 l/m 8,9 km/h (2 Bft) O 90 0 min 2,0 C 3,4 C 11,4 km/h (2 Bft)
15.03.2018 10:00 5,2 C 4,0 C 7,7 C 6,6 C 6,4 C 1,4 C 80 % 67 % 1008,6 hPa 0,0 l/m 8,5 km/h (2 Bft) O-NO 67 0 min 2,0 C 4,7 C 11,3 km/h (2 Bft)
15.03.2018 10:05 5,3 C 4,0 C 7,7 C 7,0 C 6,5 C 1,7 C 79 % 67 % 1008,6 hPa 0,0 l/m 9,5 km/h (2 Bft) O-NO 67 0 min 2,0 C 4,6 C 17,1 km/h (3 Bft)
15.03.2018 10:10 5,5 C 4,0 C 7,7 C 6,6 C 5,7 C 1,1 C 78 % 67 % 1008,6 hPa 0,0 l/m 10,6 km/h (2 Bft) NO 45 0 min 2,0 C 3,4 C 12,4 km/h (3 Bft)
15.03.2018 10:15 5,6 C 4,0 C 7,7 C 6,5 C 5,8 C 0,9 C 77 % 67 % 1008,4 hPa 0,0 l/m 12,4 km/h (3 Bft) O-NO 67 0 min 1,9 C 3,2 C 20,6 km/h (4 Bft)
15.03.2018 10:20 5,7 C 4,0 C 7,7 C 6,3 C 5,4 C 0,6 C 76 % 67 % 1008,4 hPa 0,0 l/m 12,9 km/h (3 Bft) O-NO 67 0 min 1,8 C 2,6 C 9,8 km/h (2 Bft)
15.03.2018 10:25 5,9 C 4,0 C 7,7 C 6,0 C 5,3 C 0,1 C 77 % 67 % 1008,4 hPa 0,0 l/m 10,9 km/h (2 Bft) O-NO 67 0 min 2,2 C 2,8 C 10,9 km/h (2 Bft)
15.03.2018 10:30 6,0 C 4,0 C 7,7 C 6,3 C 6,0 C 0,3 C 76 % 67 % 1008,4 hPa 0,0 l/m 9,7 km/h (2 Bft) NO 45 0 min 2,1 C 3,9 C 13,0 km/h (3 Bft)
15.03.2018 10:35 6,1 C 4,0 C 7,7 C 6,7 C 6,2 C 0,6 C 75 % 67 % 1008,3 hPa 0,0 l/m 9,7 km/h (2 Bft) NO 45 0 min 2,0 C 4,2 C 10,0 km/h (2 Bft)
15.03.2018 10:40 6,3 C 4,0 C 7,7 C 7,0 C 6,6 C 0,7 C 76 % 67 % 1008,3 hPa 0,0 l/m 8,5 km/h (2 Bft) O-NO 67 0 min 2,4 C 4,9 C 7,6 km/h (2 Bft)
15.03.2018 10:45 6,3 C 4,0 C 7,7 C 7,2 C 6,9 C 0,9 C 76 % 67 % 1008,3 hPa 0,0 l/m 8,2 km/h (2 Bft) NO 45 0 min 2,4 C 5,3 C 11,1 km/h (2 Bft)
15.03.2018 10:50 6,2 C 4,0 C 7,7 C 7,2 C 6,5 C 1,0 C 75 % 67 % 1008,3 hPa 0,0 l/m 10,5 km/h (2 Bft) O-NO 67 0 min 2,1 C 4,4 C 15,0 km/h (3 Bft)
15.03.2018 10:55 6,3 C 4,0 C 7,7 C 6,8 C 6,0 C 0,5 C 74 % 67 % 1008,1 hPa 0,0 l/m 11,4 km/h (2 Bft) O-NO 67 0 min 2,0 C 3,6 C 22,4 km/h (4 Bft)
15.03.2018 11:00 6,3 C 4,1 C 7,7 C 7,4 C 7,3 C 1,1 C 75 % 67 % 1008,1 hPa 0,0 l/m 9,8 km/h (2 Bft) W-NW 292 0 min 2,2 C 5,4 C 10,1 km/h (2 Bft)
15.03.2018 11:05 6,7 C 4,1 C 7,7 C 8,6 C 8,7 C 1,9 C 74 % 67 % 1008,1 hPa 0,0 l/m 7,9 km/h (2 Bft) NO 45 0 min 2,4 C 7,5 C 8,5 km/h (2 Bft)
15.03.2018 11:10 6,7 C 4,1 C 7,7 C 9,0 C 8,6 C 2,3 C 74 % 67 % 1008,1 hPa 0,0 l/m 8,2 km/h (2 Bft) O-NO 67 0 min 2,4 C 7,3 C 15,1 km/h (3 Bft)
15.03.2018 11:15 6,8 C 4,1 C 7,7 C 9,1 C 8,8 C 2,3 C 73 % 67 % 1008,5 hPa 0,0 l/m 8,0 km/h (2 Bft) N-NO 22 0 min 2,3 C 7,6 C 5,0 km/h (1 Bft)
15.03.2018 11:20 7,1 C 4,1 C 7,7 C 9,4 C 9,2 C 2,3 C 73 % 67 % 1008,5 hPa 0,0 l/m 8,5 km/h (2 Bft) NO 45 0 min 2,6 C 8,0 C 13,0 km/h (3 Bft)
15.03.2018 11:25 6,8 C 4,1 C 7,7 C 8,8 C 7,9 C 2,0 C 72 % 67 % 1008,5 hPa 0,0 l/m 9,2 km/h (2 Bft) NO 45 0 min 2,1 C 6,3 C 9,7 km/h (2 Bft)
15.03.2018 11:30 6,7 C 4,1 C 7,7 C 7,9 C 7,1 C 1,2 C 72 % 67 % 1008,5 hPa 0,0 l/m 10,5 km/h (2 Bft) O-NO 67 0 min 2,0 C 5,1 C 14,8 km/h (3 Bft)
15.03.2018 11:35 6,7 C 4,1 C 7,7 C 7,4 C 6,6 C 0,7 C 72 % 67 % 1007,9 hPa 0,0 l/m 11,4 km/h (2 Bft) O-NO 67 0 min 2,0 C 4,3 C 9,0 km/h (2 Bft)
15.03.2018 11:40 6,7 C 4,1 C 7,7 C 7,2 C 6,5 C 0,5 C 73 % 67 % 1007,9 hPa 0,0 l/m 10,9 km/h (2 Bft) NO 45 0 min 2,2 C 4,3 C 14,0 km/h (3 Bft)
15.03.2018 11:45 6,7 C 4,1 C 7,7 C 7,4 C 7,1 C 0,7 C 73 % 67 % 1007,9 hPa 0,0 l/m 9,0 km/h (2 Bft) O-NO 67 0 min 2,2 C 5,4 C 8,2 km/h (2 Bft)
15.03.2018 11:50 6,8 C 4,2 C 7,7 C 7,4 C 6,7 C 0,6 C 72 % 67 % 1007,9 hPa 0,0 l/m 10,1 km/h (2 Bft) N-NO 22 0 min 2,1 C 4,7 C 15,8 km/h (3 Bft)
15.03.2018 11:55 6,9 C 4,2 C 7,7 C 7,6 C 7,2 C 0,7 C 73 % 67 % 1007,7 hPa 0,0 l/m 9,8 km/h (2 Bft) NO 45 0 min 2,4 C 5,3 C 20,4 km/h (4 Bft)
15.03.2018 12:00 7,1 C 4,2 C 7,7 C 8,4 C 8,3 C 1,3 C 72 % 67 % 1007,7 hPa 0,0 l/m 10,1 km/h (2 Bft) NO 45 0 min 2,4 C 6,6 C 16,3 km/h (3 Bft)
15.03.2018 12:05 7,5 C 4,2 C 7,7 C 9,6 C 9,5 C 2,1 C 71 % 67 % 1007,7 hPa 0,0 l/m 11,1 km/h (2 Bft) O-NO 67 0 min 2,6 C 7,8 C 12,6 km/h (3 Bft)
15.03.2018 12:10 7,5 C 4,2 C 7,7 C 9,7 C 9,1 C 2,2 C 70 % 67 % 1007,7 hPa 0,0 l/m 11,9 km/h (2 Bft) O-NO 67 0 min 2,4 C 7,2 C 16,1 km/h (3 Bft)
15.03.2018 12:15 7,3 C 4,2 C 7,7 C 8,9 C 7,9 C 1,6 C 70 % 67 % 1007,3 hPa 0,0 l/m 12,7 km/h (3 Bft) O-NO 67 0 min 2,2 C 5,7 C 11,4 km/h (2 Bft)
15.03.2018 12:20 7,5 C 4,2 C 7,7 C 8,7 C 8,2 C 1,2 C 69 % 67 % 1007,3 hPa 0,0 l/m 12,7 km/h (3 Bft) O-NO 67 0 min 2,2 C 6,0 C 15,8 km/h (3 Bft)
15.03.2018 12:25 7,7 C 4,3 C 7,7 C 9,2 C 8,9 C 1,5 C 70 % 67 % 1007,3 hPa 0,0 l/m 11,9 km/h (2 Bft) O-NO 67 0 min 2,6 C 7,0 C 7,7 km/h (2 Bft)
15.03.2018 12:30 7,6 C 4,3 C 7,7 C 9,7 C 9,3 C 2,1 C 69 % 67 % 1007,3 hPa 0,0 l/m 12,6 km/h (3 Bft) NO 45 0 min 2,3 C 7,4 C 16,4 km/h (3 Bft)
15.03.2018 12:35 7,9 C 4,3 C 7,7 C 10,0 C 9,7 C 2,1 C 69 % 67 % 1007,0 hPa 0,0 l/m 11,7 km/h (2 Bft) O-NO 67 0 min 2,6 C 8,0 C 13,4 km/h (3 Bft)
15.03.2018 12:40 7,7 C 4,3 C 7,7 C 9,6 C 8,8 C 1,9 C 69 % 67 % 1007,0 hPa 0,0 l/m 11,9 km/h (2 Bft) O-NO 67 0 min 2,4 C 6,9 C 11,3 km/h (2 Bft)
15.03.2018 12:45 7,7 C 4,3 C 7,7 C 8,8 C 8,8 C 1,1 C 69 % 67 % 1007,0 hPa 0,0 l/m 12,9 km/h (3 Bft) NO 45 0 min 2,4 C 6,7 C 13,8 km/h (3 Bft)
15.03.2018 12:50 8,0 C 4,3 C 7,7 C 10,1 C 10,1 C 2,1 C 70 % 67 % 1007,0 hPa 0,0 l/m 10,9 km/h (2 Bft) NO 45 0 min 2,9 C 10,1 C 11,4 km/h (2 Bft)
15.03.2018 12:55 8,4 C 4,4 C 7,7 C 11,5 C 11,8 C 3,1 C 70 % 67 % 1006,5 hPa 0,0 l/m 9,7 km/h (2 Bft) NO 45 0 min 3,3 C 11,8 C 9,0 km/h (2 Bft)
15.03.2018 13:00 8,5 C 4,4 C 7,7 C 12,3 C 12,1 C 3,8 C 68 % 67 % 1006,5 hPa 0,0 l/m 9,7 km/h (2 Bft) O 90 5 min 2,9 C 12,1 C 10,5 km/h (2 Bft)
15.03.2018 13:05 8,8 C 4,4 C 7,7 C 12,6 C 12,6 C 3,8 C 66 % 67 % 1006,5 hPa 0,0 l/m 8,4 km/h (2 Bft) NO 45 5 min 2,8 C 12,6 C 6,1 km/h (2 Bft)
15.03.2018 13:10 8,8 C 4,4 C 7,7 C 12,7 C 12,3 C 3,9 C 64 % 67 % 1006,5 hPa 0,0 l/m 10,1 km/h (2 Bft) O-NO 67 5 min 2,4 C 12,3 C 15,4 km/h (3 Bft)
15.03.2018 13:15 8,7 C 4,4 C 7,7 C 11,7 C 10,8 C 3,0 C 64 % 67 % 1006,2 hPa 0,0 l/m 11,7 km/h (2 Bft) O-NO 67 0 min 2,3 C 10,8 C 23,5 km/h (4 Bft)
15.03.2018 13:20 8,9 C 4,4 C 7,7 C 11,2 C 10,9 C 2,3 C 65 % 67 % 1006,2 hPa 0,0 l/m 9,3 km/h (2 Bft) O-NO 67 0 min 2,7 C 10,9 C 9,3 km/h (2 Bft)
15.03.2018 13:25 9,1 C 4,4 C 7,7 C 11,8 C 11,9 C 2,7 C 63 % 67 % 1006,2 hPa 0,0 l/m 9,7 km/h (2 Bft) O 90 0 min 2,4 C 11,9 C 21,9 km/h (4 Bft)
15.03.2018 13:30 9,1 C 4,5 C 7,7 C 12,1 C 11,6 C 3,0 C 63 % 67 % 1006,2 hPa 0,0 l/m 11,9 km/h (2 Bft) O-NO 67 0 min 2,4 C 11,6 C 14,0 km/h (3 Bft)
15.03.2018 13:35 9,1 C 4,5 C 7,7 C 11,7 C 11,2 C 2,6 C 63 % 67 % 1006,1 hPa 0,0 l/m 12,4 km/h (3 Bft) NO 45 0 min 2,4 C 11,2 C 14,8 km/h (3 Bft)
15.03.2018 13:40 9,1 C 4,5 C 7,7 C 11,7 C 11,4 C 2,6 C 63 % 67 % 1006,1 hPa 0,0 l/m 10,9 km/h (2 Bft) O-NO 67 0 min 2,4 C 11,4 C 9,2 km/h (2 Bft)
15.03.2018 13:45 9,2 C 4,5 C 7,7 C 12,1 C 12,1 C 2,9 C 62 % 67 % 1006,1 hPa 0,0 l/m 9,8 km/h (2 Bft) O-NO 67 0 min 2,3 C 12,1 C 10,3 km/h (2 Bft)
15.03.2018 13:50 9,2 C 4,5 C 7,7 C 12,5 C 12,2 C 3,3 C 62 % 67 % 1006,1 hPa 0,0 l/m 10,6 km/h (2 Bft) O-NO 67 5 min 2,3 C 12,2 C 12,2 km/h (2 Bft)
15.03.2018 13:55 9,6 C 4,6 C 7,7 C 12,7 C 12,6 C 3,1 C 61 % 67 % 1005,6 hPa 0,0 l/m 10,8 km/h (2 Bft) O-NO 67 0 min 2,5 C 12,6 C 7,9 km/h (2 Bft)
15.03.2018 14:00 9,6 C 4,6 C 7,7 C 12,6 C 12,6 C 3,0 C 60 % 67 % 1005,6 hPa 0,0 l/m 9,7 km/h (2 Bft) NO 45 0 min 2,2 C 12,6 C 15,8 km/h (3 Bft)
15.03.2018 14:05 9,6 C 4,6 C 7,7 C 13,0 C 13,0 C 3,4 C 60 % 67 % 1005,6 hPa 0,0 l/m 8,5 km/h (2 Bft) O-NO 67 5 min 2,2 C 13,0 C 10,3 km/h (2 Bft)
15.03.2018 14:10 9,9 C 4,6 C 7,7 C 13,6 C 13,7 C 3,7 C 61 % 67 % 1005,6 hPa 0,0 l/m 8,5 km/h (2 Bft) O-NO 67 5 min 2,7 C 13,7 C 16,7 km/h (3 Bft)
15.03.2018 14:15 9,7 C 4,6 C 7,7 C 13,5 C 13,2 C 3,8 C 59 % 67 % 1005,8 hPa 0,0 l/m 9,3 km/h (2 Bft) O-NO 67 5 min 2,1 C 13,2 C 9,2 km/h (2 Bft)
15.03.2018 14:20 9,8 C 4,6 C 7,7 C 13,2 C 13,2 C 3,4 C 60 % 67 % 1005,8 hPa 0,0 l/m 9,5 km/h (2 Bft) N-NW 337 5 min 2,4 C 13,2 C 9,3 km/h (2 Bft)
15.03.2018 14:25 10,0 C 4,7 C 7,7 C 14,2 C 14,2 C 4,2 C 60 % 67 % 1005,8 hPa 0,0 l/m 6,0 km/h (2 Bft) O-NO 67 5 min 2,6 C 14,2 C 7,1 km/h (2 Bft)
15.03.2018 14:30 10,0 C 4,7 C 7,7 C 13,9 C 13,9 C 3,9 C 59 % 67 % 1005,8 hPa 0,0 l/m 5,1 km/h (1 Bft) NO 45 5 min 2,4 C 13,9 C 8,9 km/h (2 Bft)
15.03.2018 14:35 10,0 C 4,7 C 7,7 C 13,8 C 13,8 C 3,8 C 58 % 67 % 1005,8 hPa 0,0 l/m 7,2 km/h (2 Bft) O-NO 67 5 min 2,1 C 13,8 C 7,9 km/h (2 Bft)
15.03.2018 14:40 10,1 C 4,7 C 7,7 C 13,8 C 13,8 C 3,7 C 58 % 67 % 1005,8 hPa 0,0 l/m 7,6 km/h (2 Bft) NO 45 5 min 2,2 C 13,8 C 12,2 km/h (2 Bft)
15.03.2018 14:45 10,0 C 4,7 C 7,7 C 13,9 C 13,9 C 3,9 C 57 % 67 % 1005,8 hPa 0,0 l/m 7,6 km/h (2 Bft) N-NO 22 5 min 1,9 C 13,9 C 5,8 km/h (2 Bft)
15.03.2018 14:50 10,1 C 4,7 C 7,7 C 14,1 C 14,1 C 4,0 C 58 % 67 % 1005,8 hPa 0,0 l/m 7,2 km/h (2 Bft) NO 45 5 min 2,2 C 14,1 C 8,0 km/h (2 Bft)
15.03.2018 14:55 10,3 C 4,7 C 7,7 C 14,7 C 14,7 C 4,4 C 59 % 67 % 1005,3 hPa 0,0 l/m 5,5 km/h (1 Bft) SO 135 5 min 2,6 C 14,7 C 3,2 km/h (1 Bft)
15.03.2018 15:00 10,4 C 4,8 C 7,7 C 15,0 C 15,0 C 4,6 C 58 % 67 % 1005,3 hPa 0,0 l/m 6,0 km/h (2 Bft) O-NO 67 5 min 2,5 C 15,0 C 16,3 km/h (3 Bft)
15.03.2018 15:05 10,2 C 4,8 C 7,7 C 14,0 C 13,3 C 3,8 C 58 % 67 % 1005,3 hPa 0,0 l/m 8,2 km/h (2 Bft) NO 45 5 min 2,3 C 13,3 C 16,7 km/h (3 Bft)
15.03.2018 15:10 9,9 C 4,8 C 7,7 C 12,5 C 11,7 C 2,6 C 58 % 67 % 1005,3 hPa 0,0 l/m 9,5 km/h (2 Bft) O-NO 67 0 min 2,0 C 11,7 C 9,0 km/h (2 Bft)
15.03.2018 15:15 9,7 C 4,8 C 7,7 C 11,3 C 10,8 C 1,6 C 59 % 67 % 1005,4 hPa 0,0 l/m 7,7 km/h (2 Bft) O-NO 67 0 min 2,1 C 10,8 C 7,1 km/h (2 Bft)
15.03.2018 15:20 9,7 C 4,8 C 7,7 C 11,3 C 11,3 C 1,6 C 60 % 67 % 1005,4 hPa 0,0 l/m 5,1 km/h (1 Bft) N-NO 22 0 min 2,3 C 11,3 C 6,8 km/h (2 Bft)
15.03.2018 15:25 9,7 C 4,8 C 7,7 C 10,8 C 10,8 C 1,1 C 59 % 67 % 1005,4 hPa 0,0 l/m 6,4 km/h (2 Bft) O-SO 112 0 min 2,1 C 10,8 C 8,9 km/h (2 Bft)
15.03.2018 15:30 9,6 C 4,8 C 7,7 C 10,7 C 10,7 C 1,1 C 59 % 67 % 1005,4 hPa 0,0 l/m 6,9 km/h (2 Bft) O-NO 67 0 min 2,0 C 10,7 C 5,1 km/h (1 Bft)
15.03.2018 15:35 9,5 C 4,8 C 7,7 C 10,2 C 10,2 C 0,7 C 59 % 67 % 1005,2 hPa 0,0 l/m 7,1 km/h (2 Bft) O-NO 67 0 min 1,9 C 10,2 C 11,7 km/h (2 Bft)
15.03.2018 15:40 9,4 C 4,9 C 7,7 C 10,1 C 9,6 C 0,7 C 60 % 67 % 1005,2 hPa 0,0 l/m 7,7 km/h (2 Bft) O 90 0 min 2,0 C 8,6 C 6,3 km/h (2 Bft)
15.03.2018 15:45 9,2 C 4,9 C 7,7 C 9,6 C 9,1 C 0,4 C 60 % 67 % 1005,2 hPa 0,0 l/m 8,2 km/h (2 Bft) O-NO 67 0 min 1,8 C 7,9 C 9,2 km/h (2 Bft)
15.03.2018 15:50 9,2 C 4,9 C 7,7 C 9,2 C 9,2 C 0,0 C 61 % 67 % 1005,2 hPa 0,0 l/m 7,6 km/h (2 Bft) O-NO 67 0 min 2,1 C 8,2 C 10,6 km/h (2 Bft)
15.03.2018 15:55 9,3 C 4,9 C 7,7 C 9,5 C 9,5 C 0,2 C 62 % 67 % 1004,7 hPa 0,0 l/m 7,1 km/h (2 Bft) NO 45 0 min 2,4 C 8,6 C 6,6 km/h (2 Bft)
15.03.2018 16:00 9,2 C 5,0 C 7,7 C 10,4 C 10,4 C 1,2 C 62 % 67 % 1004,7 hPa 0,0 l/m 6,3 km/h (2 Bft) O-NO 67 0 min 2,3 C 10,4 C 8,7 km/h (2 Bft)
15.03.2018 16:05 9,5 C 5,0 C 7,7 C 11,6 C 11,6 C 2,1 C 61 % 67 % 1004,7 hPa 0,0 l/m 6,3 km/h (2 Bft) O-NO 67 0 min 2,4 C 11,6 C 5,8 km/h (2 Bft)
15.03.2018 16:10 9,5 C 5,0 C 7,7 C 11,6 C 11,6 C 2,1 C 61 % 67 % 1004,7 hPa 0,0 l/m 7,2 km/h (2 Bft) O-NO 67 0 min 2,4 C 11,6 C 7,6 km/h (2 Bft)
15.03.2018 16:15 9,5 C 5,0 C 7,7 C 11,7 C 11,7 C 2,2 C 61 % 67 % 1005,0 hPa 0,0 l/m 7,6 km/h (2 Bft) O-NO 67 0 min 2,4 C 11,7 C 4,5 km/h (1 Bft)
15.03.2018 16:20 9,5 C 5,0 C 7,7 C 12,1 C 12,1 C 2,6 C 61 % 67 % 1005,0 hPa 0,0 l/m 6,9 km/h (2 Bft) O-NO 67 0 min 2,4 C 12,1 C 11,3 km/h (2 Bft)
15.03.2018 16:25 9,3 C 5,0 C 7,7 C 11,5 C 10,9 C 2,2 C 60 % 67 % 1005,0 hPa 0,0 l/m 7,9 km/h (2 Bft) NO 45 0 min 1,9 C 10,9 C 16,7 km/h (3 Bft)
15.03.2018 16:30 9,3 C 5,0 C 7,7 C 10,6 C 9,9 C 1,3 C 60 % 67 % 1005,0 hPa 0,0 l/m 8,9 km/h (2 Bft) O-NO 67 0 min 1,9 C 8,7 C 9,0 km/h (2 Bft)
15.03.2018 16:35 9,1 C 5,0 C 7,7 C 10,0 C 9,5 C 0,9 C 61 % 67 % 1005,1 hPa 0,0 l/m 9,2 km/h (2 Bft) NO 45 0 min 2,0 C 8,2 C 11,3 km/h (2 Bft)
15.03.2018 16:40 9,1 C 5,0 C 7,7 C 9,6 C 9,1 C 0,5 C 61 % 67 % 1005,1 hPa 0,0 l/m 9,2 km/h (2 Bft) O 90 0 min 2,0 C 7,7 C 12,2 km/h (2 Bft)
15.03.2018 16:45 8,9 C 5,0 C 7,7 C 9,4 C 9,0 C 0,5 C 62 % 67 % 1005,1 hPa 0,0 l/m 7,9 km/h (2 Bft) S-SO 157 0 min 2,0 C 7,9 C 7,2 km/h (2 Bft)
15.03.2018 16:50 8,9 C 5,0 C 7,7 C 9,0 C 8,4 C 0,1 C 62 % 67 % 1005,1 hPa 0,0 l/m 9,2 km/h (2 Bft) NO 45 0 min 2,0 C 6,9 C 15,4 km/h (3 Bft)
15.03.2018 16:55 8,9 C 5,0 C 7,7 C 8,8 C 7,6 C 0,0 C 62 % 67 % 1004,8 hPa 0,0 l/m 12,1 km/h (2 Bft) O-NO 67 0 min 2,0 C 5,4 C 13,8 km/h (3 Bft)
15.03.2018 17:00 8,7 C 5,0 C 7,7 C 8,5 C 7,2 C 0,0 C 62 % 67 % 1004,8 hPa 0,0 l/m 13,8 km/h (3 Bft) O-NO 67 0 min 1,8 C 4,6 C 15,8 km/h (3 Bft)
15.03.2018 17:05 8,7 C 5,0 C 7,7 C 8,3 C 6,8 C 0,0 C 62 % 67 % 1004,8 hPa 0,0 l/m 13,5 km/h (3 Bft) O-NO 67 0 min 1,8 C 4,2 C 12,2 km/h (2 Bft)
15.03.2018 17:10 8,5 C 5,1 C 7,7 C 8,2 C 6,9 C 0,0 C 63 % 67 % 1004,8 hPa 0,0 l/m 12,1 km/h (2 Bft) O-NO 67 0 min 1,9 C 4,5 C 18,7 km/h (3 Bft)
15.03.2018 17:15 8,5 C 5,1 C 7,7 C 8,2 C 6,8 C 0,0 C 63 % 67 % 1004,9 hPa 0,0 l/m 11,9 km/h (2 Bft) O-NO 67 0 min 1,9 C 4,5 C 13,5 km/h (3 Bft)
15.03.2018 17:20 8,5 C 5,1 C 7,7 C 8,1 C 6,5 C 0,0 C 63 % 67 % 1004,9 hPa 0,0 l/m 11,9 km/h (2 Bft) O-NO 67 0 min 1,9 C 4,1 C 14,0 km/h (3 Bft)
15.03.2018 17:25 8,3 C 5,1 C 7,7 C 7,9 C 6,4 C 0,0 C 64 % 67 % 1004,9 hPa 0,0 l/m 10,9 km/h (2 Bft) O-NO 67 0 min 1,9 C 4,2 C 13,4 km/h (3 Bft)
15.03.2018 17:30 8,2 C 5,1 C 7,7 C 7,8 C 6,5 C 0,0 C 64 % 67 % 1004,9 hPa 0,0 l/m 10,1 km/h (2 Bft) O-NO 67 0 min 1,8 C 4,4 C 8,4 km/h (2 Bft)
15.03.2018 17:35 8,0 C 5,1 C 7,7 C 7,6 C 6,4 C 0,0 C 65 % 67 % 1004,9 hPa 0,0 l/m 8,7 km/h (2 Bft) O-NO 67 0 min 1,8 C 4,6 C 8,9 km/h (2 Bft)
15.03.2018 17:40 8,0 C 5,1 C 7,7 C 7,6 C 6,3 C 0,0 C 65 % 67 % 1004,9 hPa 0,0 l/m 8,5 km/h (2 Bft) NO 45 0 min 1,8 C 4,5 C 10,3 km/h (2 Bft)
15.03.2018 17:45 7,8 C 5,1 C 7,7 C 7,4 C 5,9 C 0,0 C 65 % 67 % 1004,9 hPa 0,0 l/m 8,5 km/h (2 Bft) O-NO 67 0 min 1,6 C 4,1 C 7,7 km/h (2 Bft)
15.03.2018 17:50 7,9 C 5,1 C 7,7 C 7,4 C 6,1 C 0,0 C 65 % 67 % 1004,9 hPa 0,0 l/m 7,9 km/h (2 Bft) O-NO 67 0 min 1,7 C 4,5 C 11,3 km/h (2 Bft)
15.03.2018 17:55 7,7 C 5,2 C 7,7 C 7,3 C 5,8 C 0,0 C 66 % 67 % 1005,2 hPa 0,0 l/m 8,0 km/h (2 Bft) NO 45 0 min 1,8 C 4,1 C 8,7 km/h (2 Bft)
15.03.2018 18:00 7,6 C 5,2 C 7,7 C 7,1 C 5,7 C 0,0 C 65 % 67 % 1005,2 hPa 0,0 l/m 8,0 km/h (2 Bft) NO 45 0 min 1,5 C 4,0 C 9,0 km/h (2 Bft)
15.03.2018 18:05 7,5 C 5,2 C 7,7 C 6,9 C 5,6 C 0,0 C 66 % 67 % 1005,2 hPa 0,0 l/m 7,6 km/h (2 Bft) O-NO 67 0 min 1,6 C 3,9 C 8,2 km/h (2 Bft)
15.03.2018 18:10 7,4 C 5,2 C 7,7 C 6,9 C 5,5 C 0,0 C 66 % 67 % 1005,2 hPa 0,0 l/m 7,9 km/h (2 Bft) NO 45 0 min 1,5 C 3,7 C 8,7 km/h (2 Bft)
15.03.2018 18:15 7,3 C 5,2 C 7,7 C 6,6 C 5,3 C 0,0 C 66 % 67 % 1005,6 hPa 0,0 l/m 7,6 km/h (2 Bft) O-NO 67 0 min 1,4 C 3,6 C 9,0 km/h (2 Bft)
15.03.2018 18:20 7,2 C 5,2 C 7,7 C 6,6 C 5,4 C 0,0 C 66 % 67 % 1005,6 hPa 0,0 l/m 7,1 km/h (2 Bft) NO 45 0 min 1,3 C 3,8 C 6,4 km/h (2 Bft)
15.03.2018 18:25 7,2 C 5,2 C 7,7 C 6,7 C 4,9 C 0,0 C 67 % 67 % 1005,6 hPa 0,0 l/m 7,7 km/h (2 Bft) NO 45 0 min 1,5 C 3,1 C 8,0 km/h (2 Bft)
15.03.2018 18:30 7,2 C 5,2 C 7,7 C 6,4 C 4,9 C 0,0 C 67 % 67 % 1005,6 hPa 0,0 l/m 8,0 km/h (2 Bft) NO 45 0 min 1,5 C 3,0 C 7,7 km/h (2 Bft)
15.03.2018 18:35 7,1 C 5,2 C 7,7 C 6,5 C 4,8 C 0,0 C 67 % 67 % 1005,1 hPa 0,0 l/m 8,2 km/h (2 Bft) NO 45 0 min 1,4 C 2,8 C 7,9 km/h (2 Bft)
15.03.2018 18:40 7,1 C 5,2 C 7,7 C 6,3 C 4,8 C 0,0 C 67 % 67 % 1005,1 hPa 0,0 l/m 8,4 km/h (2 Bft) NO 45 0 min 1,4 C 2,8 C 14,3 km/h (3 Bft)
15.03.2018 18:45 7,1 C 5,2 C 7,7 C 6,3 C 4,8 C 0,0 C 67 % 67 % 1005,1 hPa 0,0 l/m 8,2 km/h (2 Bft) O-NO 67 0 min 1,4 C 2,8 C 13,2 km/h (3 Bft)
15.03.2018 18:50 7,1 C 5,2 C 7,7 C 6,3 C 4,8 C 0,0 C 67 % 67 % 1005,1 hPa 0,0 l/m 8,2 km/h (2 Bft) O-NO 67 0 min 1,4 C 2,8 C 7,7 km/h (2 Bft)
15.03.2018 18:55 6,9 C 5,2 C 7,7 C 6,2 C 4,8 C 0,0 C 67 % 67 % 1005,5 hPa 0,0 l/m 7,1 km/h (2 Bft) NO 45 0 min 1,2 C 3,1 C 7,7 km/h (2 Bft)
15.03.2018 19:00 6,8 C 5,2 C 7,7 C 6,2 C 5,1 C 0,0 C 68 % 67 % 1005,5 hPa 0,0 l/m 6,4 km/h (2 Bft) O-NO 67 0 min 1,3 C 3,7 C 6,0 km/h (2 Bft)
15.03.2018 19:05 6,8 C 5,2 C 7,7 C 6,2 C 5,0 C 0,0 C 68 % 67 % 1005,5 hPa 0,0 l/m 6,3 km/h (2 Bft) O-NO 67 0 min 1,3 C 3,6 C 7,1 km/h (2 Bft)
15.03.2018 19:10 6,8 C 5,2 C 7,7 C 6,2 C 4,9 C 0,0 C 68 % 67 % 1005,5 hPa 0,0 l/m 6,1 km/h (2 Bft) N-NO 22 0 min 1,3 C 3,6 C 5,8 km/h (2 Bft)
15.03.2018 19:15 6,7 C 5,2 C 7,7 C 6,1 C 4,9 C 0,0 C 68 % 67 % 1005,1 hPa 0,0 l/m 6,1 km/h (2 Bft) O-NO 67 0 min 1,2 C 3,6 C 9,3 km/h (2 Bft)
15.03.2018 19:20 6,7 C 5,2 C 7,7 C 6,1 C 5,0 C 0,0 C 68 % 67 % 1005,1 hPa 0,0 l/m 6,0 km/h (2 Bft) NO 45 0 min 1,2 C 3,7 C 5,1 km/h (1 Bft)
15.03.2018 19:25 6,7 C 5,2 C 7,7 C 6,2 C 5,1 C 0,0 C 68 % 67 % 1005,1 hPa 0,0 l/m 5,6 km/h (1 Bft) O-NO 67 0 min 1,2 C 4,0 C 8,7 km/h (2 Bft)
15.03.2018 19:30 6,7 C 5,2 C 7,7 C 6,2 C 5,2 C 0,0 C 68 % 67 % 1005,1 hPa 0,0 l/m 5,5 km/h (1 Bft) O-NO 67 0 min 1,2 C 4,1 C 7,4 km/h (2 Bft)
15.03.2018 19:35 6,7 C 5,2 C 7,7 C 6,1 C 4,9 C 0,0 C 68 % 67 % 1005,1 hPa 0,0 l/m 6,0 km/h (2 Bft) NO 45 0 min 1,2 C 3,6 C 6,8 km/h (2 Bft)
15.03.2018 19:40 6,7 C 5,2 C 7,7 C 6,1 C 4,8 C 0,0 C 68 % 67 % 1005,1 hPa 0,0 l/m 6,3 km/h (2 Bft) O-NO 67 0 min 1,2 C 3,4 C 6,6 km/h (2 Bft)
15.03.2018 19:45 6,6 C 5,2 C 7,7 C 6,0 C 4,8 C 0,0 C 68 % 67 % 1005,1 hPa 0,0 l/m 6,3 km/h (2 Bft) O-NO 67 0 min 1,1 C 3,4 C 9,2 km/h (2 Bft)
15.03.2018 19:50 6,5 C 5,2 C 7,7 C 5,9 C 4,7 C 0,0 C 69 % 67 % 1005,1 hPa 0,0 l/m 6,1 km/h (2 Bft) O-NO 67 0 min 1,2 C 3,3 C 12,2 km/h (2 Bft)
15.03.2018 19:55 6,5 C 5,2 C 7,7 C 5,9 C 4,6 C 0,0 C 69 % 67 % 1004,8 hPa 0,0 l/m 6,8 km/h (2 Bft) O-NO 67 0 min 1,2 C 3,0 C 10,9 km/h (2 Bft)
15.03.2018 20:00 6,5 C 5,2 C 7,7 C 5,8 C 4,4 C 0,0 C 69 % 67 % 1004,8 hPa 0,0 l/m 7,6 km/h (2 Bft) NO 45 0 min 1,2 C 2,5 C 9,3 km/h (2 Bft)
15.03.2018 20:05 6,4 C 5,2 C 7,7 C 5,9 C 4,3 C 0,0 C 69 % 67 % 1004,8 hPa 0,0 l/m 7,7 km/h (2 Bft) N-NO 22 0 min 1,1 C 2,4 C 6,9 km/h (2 Bft)
15.03.2018 20:10 6,4 C 5,2 C 7,7 C 5,7 C 4,4 C 0,0 C 69 % 67 % 1004,8 hPa 0,0 l/m 6,9 km/h (2 Bft) N-NO 22 0 min 1,1 C 2,7 C 5,1 km/h (1 Bft)
15.03.2018 20:15 6,1 C 5,2 C 7,7 C 5,6 C 4,6 C 0,0 C 70 % 67 % 1004,8 hPa 0,0 l/m 5,1 km/h (1 Bft) NO 45 0 min 1,0 C 3,6 C 4,5 km/h (1 Bft)
15.03.2018 20:20 5,7 C 5,2 C 7,7 C 5,3 C 4,5 C 0,0 C 72 % 67 % 1004,8 hPa 0,0 l/m 4,0 km/h (1 Bft) NO 45 0 min 1,1 C 4,5 C 4,8 km/h (1 Bft)
15.03.2018 20:25 5,2 C 5,2 C 7,7 C 4,7 C 3,6 C 0,0 C 74 % 67 % 1004,8 hPa 0,0 l/m 4,0 km/h (1 Bft) N-NO 22 0 min 1,0 C 3,6 C 5,0 km/h (1 Bft)
15.03.2018 20:30 5,0 C 5,2 C 7,7 C 4,4 C 3,1 C 0,0 C 75 % 67 % 1004,8 hPa 0,0 l/m 4,3 km/h (1 Bft) NO 45 0 min 0,9 C 3,1 C 4,7 km/h (1 Bft)
15.03.2018 20:35 4,7 C 5,2 C 7,7 C 4,0 C 2,6 C 0,0 C 77 % 67 % 1004,9 hPa 0,0 l/m 4,7 km/h (1 Bft) O-NO 67 0 min 1,0 C 1,5 C 5,8 km/h (2 Bft)
15.03.2018 20:40 4,5 C 5,2 C 7,7 C 3,8 C 2,3 C 0,0 C 78 % 67 % 1004,9 hPa 0,0 l/m 4,8 km/h (1 Bft) NO 45 0 min 1,0 C 1,1 C 5,5 km/h (1 Bft)
15.03.2018 20:45 4,4 C 5,2 C 7,7 C 3,6 C 1,9 C 0,0 C 79 % 67 % 1004,9 hPa 0,0 l/m 5,0 km/h (1 Bft) NO 45 0 min 1,1 C 0,6 C 7,1 km/h (2 Bft)
15.03.2018 20:50 4,3 C 5,2 C 7,7 C 3,5 C 1,9 C 0,0 C 80 % 67 % 1004,9 hPa 0,0 l/m 5,0 km/h (1 Bft) NO 45 0 min 1,2 C 0,6 C 5,5 km/h (1 Bft)
15.03.2018 20:55 4,1 C 5,2 C 7,7 C 3,4 C 1,9 C 0,0 C 80 % 67 % 1004,9 hPa 0,0 l/m 4,8 km/h (1 Bft) O-NO 67 0 min 1,0 C 0,7 C 4,2 km/h (1 Bft)
15.03.2018 21:00 4,1 C 5,2 C 7,7 C 3,3 C 1,8 C 0,0 C 80 % 67 % 1004,9 hPa 0,0 l/m 4,3 km/h (1 Bft) NO 45 0 min 1,0 C 1,8 C 4,0 km/h (1 Bft)
15.03.2018 21:05 3,9 C 5,2 C 7,7 C 3,2 C 1,9 C 0,0 C 81 % 67 % 1004,9 hPa 0,0 l/m 4,0 km/h (1 Bft) NO 45 0 min 0,9 C 1,9 C 3,9 km/h (1 Bft)
15.03.2018 21:10 3,8 C 5,2 C 7,7 C 3,2 C 2,1 C 0,0 C 81 % 67 % 1004,9 hPa 0,0 l/m 3,5 km/h (1 Bft) O-NO 67 0 min 0,8 C 2,1 C 3,9 km/h (1 Bft)
15.03.2018 21:15 3,7 C 5,2 C 7,7 C 3,2 C 2,3 C 0,0 C 81 % 67 % 1004,7 hPa 0,0 l/m 2,9 km/h (1 Bft) NO 45 0 min 0,7 C 2,3 C 4,2 km/h (1 Bft)
15.03.2018 21:20 3,7 C 5,2 C 7,7 C 3,2 C 2,1 C 0,0 C 82 % 67 % 1004,7 hPa 0,0 l/m 3,2 km/h (1 Bft) NO 45 0 min 0,9 C 2,1 C 6,3 km/h (2 Bft)
15.03.2018 21:25 3,6 C 5,2 C 7,7 C 3,0 C 1,8 C 0,0 C 82 % 67 % 1004,7 hPa 0,0 l/m 3,7 km/h (1 Bft) NO 45 0 min 0,8 C 1,8 C 4,2 km/h (1 Bft)
15.03.2018 21:30 3,6 C 5,2 C 7,7 C 2,9 C 1,6 C 0,0 C 82 % 67 % 1004,7 hPa 0,0 l/m 4,0 km/h (1 Bft) NO 45 0 min 0,8 C 1,6 C 6,0 km/h (2 Bft)
15.03.2018 21:35 3,6 C 5,2 C 7,7 C 2,9 C 1,5 C 0,0 C 83 % 67 % 1004,7 hPa 0,0 l/m 4,2 km/h (1 Bft) NO 45 0 min 1,0 C 1,5 C 4,5 km/h (1 Bft)
15.03.2018 21:40 3,6 C 5,2 C 7,7 C 2,9 C 1,4 C 0,0 C 83 % 67 % 1004,7 hPa 0,0 l/m 4,5 km/h (1 Bft) O-NO 67 0 min 1,0 C 1,4 C 6,6 km/h (2 Bft)
15.03.2018 21:45 3,5 C 5,2 C 7,7 C 2,8 C 1,4 C 0,0 C 83 % 67 % 1004,7 hPa 0,0 l/m 4,7 km/h (1 Bft) NO 45 0 min 0,9 C 0,1 C 5,8 km/h (2 Bft)
15.03.2018 21:50 3,5 C 5,1 C 7,7 C 2,8 C 1,3 C 0,0 C 83 % 67 % 1004,7 hPa 0,0 l/m 4,8 km/h (1 Bft) N-NO 22 0 min 0,9 C -0,0 C 4,7 km/h (1 Bft)
15.03.2018 21:55 3,4 C 5,1 C 7,7 C 2,7 C 1,4 C 0,0 C 83 % 67 % 1004,7 hPa 0,0 l/m 4,7 km/h (1 Bft) N-NO 22 0 min 0,8 C 0,1 C 6,4 km/h (2 Bft)
15.03.2018 22:00 3,5 C 5,1 C 7,7 C 2,8 C 1,3 C 0,0 C 84 % 67 % 1004,7 hPa 0,0 l/m 4,5 km/h (1 Bft) NO 45 0 min 1,1 C 1,3 C 4,8 km/h (1 Bft)
15.03.2018 22:05 3,4 C 5,1 C 7,7 C 2,7 C 1,3 C 0,0 C 83 % 67 % 1004,7 hPa 0,0 l/m 4,5 km/h (1 Bft) O-NO 67 0 min 0,8 C 1,3 C 5,1 km/h (1 Bft)
15.03.2018 22:10 3,3 C 5,1 C 7,7 C 2,7 C 1,4 C 0,0 C 84 % 67 % 1004,7 hPa 0,0 l/m 4,3 km/h (1 Bft) NO 45 0 min 0,9 C 1,4 C 4,3 km/h (1 Bft)
15.03.2018 22:15 3,4 C 5,1 C 7,7 C 2,8 C 1,7 C 0,0 C 84 % 67 % 1004,3 hPa 0,0 l/m 3,9 km/h (1 Bft) NO 45 0 min 1,0 C 1,7 C 4,7 km/h (1 Bft)
15.03.2018 22:20 3,3 C 5,1 C 7,7 C 2,8 C 1,7 C 0,0 C 84 % 67 % 1004,3 hPa 0,0 l/m 3,9 km/h (1 Bft) N-NO 22 0 min 0,9 C 1,7 C 4,8 km/h (1 Bft)
15.03.2018 22:25 3,4 C 5,1 C 7,7 C 2,7 C 1,4 C 0,0 C 84 % 67 % 1004,3 hPa 0,0 l/m 4,3 km/h (1 Bft) NO 45 0 min 1,0 C 1,4 C 4,7 km/h (1 Bft)
15.03.2018 22:30 3,4 C 5,1 C 7,7 C 2,7 C 1,3 C 0,0 C 84 % 67 % 1004,3 hPa 0,0 l/m 4,8 km/h (1 Bft) O-NO 67 0 min 1,0 C -0,0 C 5,6 km/h (1 Bft)
15.03.2018 22:35 3,3 C 5,1 C 7,7 C 2,6 C 1,2 C 0,0 C 84 % 67 % 1004,2 hPa 0,0 l/m 5,1 km/h (1 Bft) NO 45 0 min 0,9 C -0,3 C 5,8 km/h (2 Bft)
15.03.2018 22:40 3,3 C 5,1 C 7,7 C 2,6 C 1,2 C 0,0 C 84 % 67 % 1004,2 hPa 0,0 l/m 5,3 km/h (1 Bft) O-NO 67 0 min 0,9 C -0,4 C 5,5 km/h (1 Bft)
15.03.2018 22:45 3,3 C 5,1 C 7,7 C 2,6 C 1,2 C 0,0 C 84 % 67 % 1004,2 hPa 0,0 l/m 5,0 km/h (1 Bft) N-NO 22 0 min 0,9 C -0,2 C 6,1 km/h (2 Bft)
15.03.2018 22:50 3,3 C 5,1 C 7,7 C 2,7 C 1,4 C 0,0 C 84 % 67 % 1004,2 hPa 0,0 l/m 4,5 km/h (1 Bft) NO 45 0 min 0,9 C 1,4 C 5,1 km/h (1 Bft)
15.03.2018 22:55 3,3 C 5,1 C 7,7 C 2,7 C 1,4 C 0,0 C 84 % 67 % 1004,1 hPa 0,0 l/m 4,5 km/h (1 Bft) O-NO 67 0 min 0,9 C 1,4 C 5,3 km/h (1 Bft)
15.03.2018 23:00 3,3 C 5,1 C 7,7 C 2,6 C 1,3 C 0,0 C 84 % 67 % 1004,1 hPa 0,0 l/m 4,8 km/h (1 Bft) O-NO 67 0 min 0,9 C -0,0 C 5,5 km/h (1 Bft)
15.03.2018 23:05 3,3 C 5,1 C 7,7 C 2,6 C 1,2 C 0,0 C 84 % 67 % 1004,1 hPa 0,0 l/m 5,1 km/h (1 Bft) NO 45 0 min 0,9 C -0,3 C 6,1 km/h (2 Bft)
15.03.2018 23:10 3,2 C 5,1 C 7,7 C 2,5 C 1,2 C 0,0 C 84 % 67 % 1004,1 hPa 0,0 l/m 5,1 km/h (1 Bft) NO 45 0 min 0,8 C -0,3 C 3,7 km/h (1 Bft)
15.03.2018 23:15 3,2 C 5,1 C 7,7 C 2,6 C 1,4 C 0,0 C 84 % 67 % 1004,2 hPa 0,0 l/m 4,7 km/h (1 Bft) O-NO 67 0 min 0,8 C 0,1 C 5,6 km/h (1 Bft)
15.03.2018 23:20 3,2 C 5,0 C 7,7 C 2,6 C 1,4 C 0,0 C 84 % 67 % 1004,2 hPa 0,0 l/m 4,3 km/h (1 Bft) NO 45 0 min 0,8 C 1,4 C 6,4 km/h (2 Bft)
15.03.2018 23:25 3,2 C 5,0 C 7,7 C 2,6 C 1,5 C 0,0 C 84 % 67 % 1004,2 hPa 0,0 l/m 4,2 km/h (1 Bft) O-NO 67 0 min 0,8 C 1,5 C 3,1 km/h (1 Bft)
15.03.2018 23:30 3,2 C 5,0 C 7,7 C 2,7 C 1,6 C 0,0 C 84 % 67 % 1004,2 hPa 0,0 l/m 3,9 km/h (1 Bft) NO 45 0 min 0,8 C 1,6 C 4,0 km/h (1 Bft)
15.03.2018 23:35 3,2 C 5,0 C 7,7 C 2,7 C 1,7 C 0,0 C 84 % 67 % 1004,2 hPa 0,0 l/m 3,5 km/h (1 Bft) O-NO 67 0 min 0,8 C 1,7 C 3,9 km/h (1 Bft)
15.03.2018 23:40 3,1 C 5,0 C 7,7 C 2,5 C 1,3 C 0,0 C 84 % 67 % 1004,2 hPa 0,0 l/m 4,0 km/h (1 Bft) NO 45 0 min 0,7 C 1,3 C 5,1 km/h (1 Bft)
15.03.2018 23:45 3,1 C 5,0 C 7,7 C 2,4 C 1,1 C 0,0 C 84 % 67 % 1004,2 hPa 0,0 l/m 4,3 km/h (1 Bft) O-NO 67 0 min 0,7 C 1,1 C 2,9 km/h (1 Bft)
15.03.2018 23:50 3,0 C 5,0 C 7,7 C 2,4 C 1,1 C 0,0 C 84 % 67 % 1004,2 hPa 0,0 l/m 4,2 km/h (1 Bft) NO 45 0 min 0,6 C 1,1 C 5,5 km/h (1 Bft)
15.03.2018 23:55 3,1 C 5,0 C 7,7 C 2,3 C 0,7 C 0,0 C 84 % 67 % 1004,2 hPa 0,0 l/m 4,8 km/h (1 Bft) NO 45 0 min 0,7 C -0,7 C 7,1 km/h (2 Bft)
_ Min-Zeit 06:55 08:55 00:00 05:25 05:20 00:00 14:45 00:00 22:55 - 00:00 - - - 06:55 05:20 00:00
Minimum _ -1,1 C 3,9 C 7,7 C -1,2 C -2,0 C 0,0 C 57 % 67 % 1004,1 hPa - 0,0 km/h (0 Bft) - - - -3,0 C -2,0 C 0,0 km/h (0 Bft)
_ Max-Zeit 15:00 17:55 00:00 15:00 15:00 07:20 07:25 00:00 00:35 00:00 17:00 - - 06:55 12:55 15:00 13:15
Maximum _ 10,4 C 5,2 C 7,7 C 15,0 C 15,0 C 5,1 C 88 % 67 % 1012,6 hPa 0,0 l/m 13,8 km/h
O-NO (3 Bft)
- - 5 min 3,3 C 15,0 C 23,5 km/h
O-NO (4 Bft)
Durchschnitt _ 4,5 C 4,7 C 7,7 C 5,0 C 4,3 C 0,8 C 77 % 67 % 1007,6 hPa #0,0 l/m 5,4 km/h (1 Bft) O-NO - #2:15 h 0,6 C 3,5 C 6,7 km/h (2 Bft)
2018 www.wetterstation-wechselburg.de